DW0275 Weather Reports


time (UTC)temp
C
wind
direction
speed
KPH
gust
KPH
rain 1hr
cm
rain 24hr
cm
rain mn
cm
humidity
%
barometer
mb
20260508192330 31 234 8.0 12.9 0.00 0.00 0.00 69 1014.3
20260508191829 31 130 4.8 17.7 0.00 0.00 0.00 70 1014.3
20260508191321 31 134 8.0 19.3 0.00 0.00 0.00 70 1014.4
20260508190835 31 67 6.4 19.3 0.00 0.00 0.00 70 1014.5
20260508190328 31 120 8.0 19.3 0.00 0.00 0.00 71 1014.6
20260508185843 31 105 9.7 19.3 0.00 0.00 0.00 71 1014.5
20260508185328 30 120 6.4 17.7 0.00 0.00 0.00 71 1014.7
20260508184835 30 354 6.4 17.7 0.00 0.00 0.00 72 1014.8
20260508184346 30 27 4.8 16.1 0.00 0.00 0.00 72 1014.8
20260508183819 31 13 8.0 16.1 0.00 0.00 0.00 72 1014.8
20260508183340 31 54 8.0 12.9 0.00 0.00 0.00 71 1014.8
20260508182834 31 71 8.0 16.1 0.00 0.00 0.00 72 1014.9
20260508182324 30 18 8.0 16.1 0.00 0.00 0.00 72 1015.0
20260508181828 31 163 8.0 14.5 0.00 0.00 0.00 71 1015.0
20260508181342 31 102 4.8 11.3 0.00 0.00 0.00 70 1015.0
20260508180830 31 114 6.4 11.3 0.00 0.00 0.00 71 1015.1
20260508180343 31 116 6.4 16.1 0.00 0.00 0.00 70 1015.1
20260508175852 32 115 4.8 16.1 0.00 0.00 0.00 67 1015.3
20260508175341 32 116 4.8 9.7 0.00 0.00 0.00 69 1015.3
20260508174832 32 70 1.6 8.0 0.00 0.00 0.00 60 1015.4
20260508174346 32 54 3.2 8.0 0.00 0.00 0.00 59 1015.2
20260508173834 33 326 1.6 4.8 0.00 0.00 0.00 59 1015.3
20260508173328 33 31 1.6 3.2 0.00 0.00 0.00 63 1015.3
20260508172821 33 290 0.0 3.2 0.00 0.00 0.00 60 1015.4
20260508172323 32 290 0.0 1.6 0.00 0.00 0.00 63 1015.5
20260508171835 32 23 0.0 6.4 0.00 0.00 0.00 66 1015.6
20260508171329 32 72 1.6 6.4 0.00 0.00 0.00 63 1015.6
20260508170819 32 19 1.6 3.2 0.00 0.00 0.00 61 1015.8
20260508170331 32 46 0.0 0.0 0.00 0.00 0.00 65 1015.8
20260508165847 32 285 0.0 1.6 0.00 0.00 0.00 63 1016.0
20260508165330 32 285 0.0 4.8 0.00 0.00 0.00 64 1016.1
20260508164841 31 13 1.6 6.4 0.00 0.00 0.00 65 1016.1
20260508164330 32 1 3.2 6.4 0.00 0.00 0.00 64 1016.2
20260508163828 32 348 1.6 4.8 0.00 0.00 0.00 65 1016.3
20260508163337 31 115 0.0 6.4 0.00 0.00 0.00 62 1016.4
20260508162849 31 111 3.2 6.4 0.00 0.00 0.00 60 1016.4
20260508162321 31 148 1.6 6.4 0.00 0.00 0.00 62 1016.4
20260508161838 31 8 1.6 8.0 0.00 0.00 0.00 65 1016.4
20260508161349 31 68 1.6 8.0 0.00 0.00 0.00 65 1016.5
20260508160820 31 326 3.2 8.0 0.00 0.00 0.00 67 1016.4
20260508160341 30 136 1.6 8.0 0.00 0.00 0.00 69 1016.4
20260508155859 31 27 3.2 8.0 0.00 0.00 0.00 70 1016.6
20260508155328 30 36 1.6 8.0 0.00 0.00 0.00 67 1016.6
20260508154841 31 349 3.2 8.0 0.00 0.00 0.00 70 1016.7
20260508154322 30 148 1.6 8.0 0.00 0.00 0.00 70 1016.8
20260508153842 30 335 3.2 6.4 0.00 0.00 0.00 70 1016.8
20260508153327 30 53 3.2 9.7 0.00 0.00 0.00 71 1016.8
20260508152838 30 319 4.8 9.7 0.00 0.00 0.00 70 1016.9
20260508152332 30 314 1.6 11.3 0.00 0.00 0.00 73 1017.0
20260508151826 30 34 3.2 11.3 0.00 0.00 0.00 74 1016.9
20260508151348 30 47 3.2 8.0 0.00 0.00 0.00 72 1016.9
20260508150840 30 37 3.2 8.0 0.00 0.00 0.00 71 1017.0
20260508150336 30 323 1.6 11.3 0.00 0.00 0.00 74 1016.8
20260508145829 29 335 4.8 11.3 0.00 0.00 0.00 74 1016.9
20260508145322 29 26 8.0 11.3 0.00 0.00 0.00 73 1016.9
20260508144843 29 32 3.2 12.9 0.00 0.00 0.00 75 1016.8
20260508144410 28 32 6.4 12.9 0.00 0.00 0.00 75 1016.8
20260508143857 29 23 6.4 12.9 0.00 0.00 0.00 73 1016.7
20260508143330 29 352 3.2 12.9 0.00 0.00 0.00 75 1016.8
20260508142844 29 20 3.2 8.0 0.00 0.00 0.00 74 1016.8
20260508142322 29 295 3.2 11.3 0.00 0.00 0.00 74 1016.8
20260508141831 28 9 3.2 12.9 0.00 0.00 0.00 75 1016.9
20260508141340 28 343 4.8 12.9 0.00 0.00 0.00 75 1016.8
20260508140851 28 319 6.4 12.9 0.00 0.00 0.00 76 1016.8
20260508140322 28 18 4.8 9.7 0.00 0.00 0.00 76 1016.7
20260508135822 28 345 6.4 12.9 0.00 0.00 0.00 76 1016.7
20260508135334 28 347 6.4 12.9 0.00 0.00 0.00 76 1016.7
20260508134825 28 348 4.8 12.9 0.00 0.00 0.00 77 1016.7
20260508134334 28 340 4.8 9.7 0.00 0.00 0.00 76 1016.7
20260508133844 28 24 6.4 11.3 0.00 0.00 0.00 76 1016.8
20260508133349 27 334 4.8 11.3 0.00 0.00 0.00 76 1016.7
20260508132842 28 338 6.4 9.7 0.00 0.00 0.00 76 1016.8
20260508132331 27 316 4.8 9.7 0.00 0.00 0.00 76 1016.8
20260508131830 27 337 3.2 8.0 0.00 0.00 0.00 77 1016.7
20260508131328 27 299 1.6 9.7 0.00 0.00 0.00 77 1016.7
20260508130848 27 326 4.8 9.7 0.00 0.00 0.00 77 1016.7
20260508130357 26 345 3.2 8.0 0.00 0.00 0.00 77 1016.5
20260508125836 26 8 3.2 9.7 0.00 0.00 0.00 77 1016.5
20260508125327 26 347 1.6 11.3 0.00 0.00 0.00 77 1016.4
20260508124822 26 338 4.8 11.3 0.00 0.00 0.00 77 1016.5
20260508124323 26 358 4.8 8.0 0.00 0.00 0.00 77 1016.5
20260508123845 26 341 1.6 8.0 0.00 0.00 0.00 77 1016.5
20260508123358 25 337 1.6 8.0 0.00 0.00 0.00 78 1016.5
20260508122847 25 352 1.6 6.4 0.00 0.00 0.00 77 1016.5
20260508122400 25 25 0.0 3.2 0.00 0.00 0.00 78 1016.5
20260508121844 25 25 1.6 4.8 0.00 0.00 0.00 78 1016.5
20260508121336 25 323 0.0 4.8 0.00 0.00 0.00 78 1016.4
20260508120838 25 353 1.6 4.8 0.00 0.00 0.00 78 1016.4
20260508120328 24 4 1.6 6.4 0.00 0.00 0.00 78 1016.3
20260508115827 24 350 3.2 6.4 0.00 0.00 0.00 79 1016.2
20260508115341 23 14 1.6 4.8 0.00 0.00 0.00 79 1016.1
20260508114906 23 354 1.6 3.2 0.00 0.00 0.00 79 1016.0
20260508114331 23 356 0.0 3.2 0.00 0.00 0.00 79 1016.0
20260508113824 23 12 1.6 3.2 0.00 0.00 0.00 80 1016.0
20260508113348 23 1 0.0 3.2 0.00 0.00 0.00 80 1015.9
20260508112821 22 349 0.0 0.0 0.00 0.00 0.00 81 1016.0
20260508112334 22 349 0.0 1.6 0.00 0.00 0.00 82 1015.9
20260508111851 22 21 0.0 1.6 0.00 0.00 0.00 82 1015.9
20260508111344 22 22 0.0 0.0 0.00 0.00 0.00 83 1015.7
20260508110844 22 22 0.0 0.0 0.00 0.00 0.00 83 1015.6
20260508110337 21 22 0.0 0.0 0.00 0.00 0.00 83 1015.5
20260508105822 21 22 0.0 0.0 0.00 0.00 0.00 83 1015.4
20260508105333 21 22 0.0 0.0 0.00 0.00 0.00 83 1015.3
20260508104827 21 22 0.0 1.6 0.00 0.00 0.00 83 1015.1
20260508104350 22 22 0.0 1.6 0.00 0.00 0.00 83 1015.1
20260508103832 21 355 0.0 1.6 0.00 0.00 0.00 83 1015.1
20260508103344 21 334 0.0 1.6 0.00 0.00 0.00 83 1015.0
20260508102831 21 165 0.0 1.6 0.00 0.00 0.00 84 1014.9
20260508102325 21 200 0.0 0.0 0.00 0.00 0.00 84 1014.9
20260508101837 21 200 0.0 0.0 0.00 0.00 0.00 84 1014.9
20260508101342 21 200 0.0 0.0 0.00 0.00 0.00 84 1014.8
20260508100829 21 200 0.0 0.0 0.00 0.00 0.00 84 1014.8
20260508100339 21 200 0.0 0.0 0.00 0.00 0.00 84 1014.7
20260508095842 21 200 0.0 0.0 0.00 0.00 0.00 84 1014.7
20260508095408 21 200 0.0 0.0 0.00 0.00 0.00 84 1014.6
20260508094858 21 200 0.0 0.0 0.00 0.00 0.00 84 1014.6
20260508094337 21 200 0.0 0.0 0.00 0.00 0.00 84 1014.5
20260508093829 21 200 0.0 0.0 0.00 0.00 0.00 84 1014.5
20260508093325 21 200 0.0 0.0 0.00 0.00 0.00 84 1014.6
20260508092846 21 200 0.0 0.0 0.00 0.00 0.00 84 1014.6
20260508092340 21 200 0.0 0.0 0.00 0.00 0.00 84 1014.6
20260508091825 21 200 0.0 0.0 0.00 0.00 0.00 84 1014.5
20260508091335 21 200 0.0 0.0 0.00 0.00 0.00 85 1014.6
20260508090828 21 200 0.0 0.0 0.00 0.00 0.00 85 1014.6
20260508090343 21 200 0.0 0.0 0.00 0.00 0.00 85 1014.5
20260508085856 21 200 0.0 0.0 0.00 0.00 0.00 85 1014.7
20260508085326 22 200 0.0 0.0 0.00 0.00 0.00 85 1014.6
20260508084834 22 200 0.0 0.0 0.00 0.00 0.00 85 1014.6
20260508084327 22 200 0.0 0.0 0.00 0.00 0.00 85 1014.5
20260508083849 22 200 0.0 0.0 0.00 0.00 0.00 85 1014.5
20260508083333 22 200 0.0 0.0 0.00 0.00 0.00 85 1014.5
20260508082845 22 200 0.0 0.0 0.00 0.00 0.00 85 1014.5
20260508082355 22 200 0.0 0.0 0.00 0.00 0.00 85 1014.5
20260508081844 22 200 0.0 0.0 0.00 0.00 0.00 85 1014.3
20260508081355 22 200 0.0 0.0 0.00 0.00 0.00 85 1014.5
20260508080846 22 200 0.0 0.0 0.00 0.00 0.00 85 1014.5
20260508080355 22 200 0.0 0.0 0.00 0.00 0.00 85 1014.6
20260508075848 22 200 0.0 0.0 0.00 0.00 0.00 85 1014.5
20260508075328 22 200 0.0 0.0 0.00 0.00 0.00 85 1014.5
20260508074840 22 200 0.0 0.0 0.00 0.00 0.00 85 1014.5
20260508074332 22 200 0.0 0.0 0.00 0.00 0.00 85 1014.5
20260508073823 22 200 0.0 0.0 0.00 0.00 0.00 85 1014.5
20260508073333 22 200 0.0 0.0 0.00 0.00 0.00 86 1014.5
20260508072908 22 200 0.0 0.0 0.00 0.00 0.00 86 1014.5
20260508072343 22 200 0.0 0.0 0.00 0.00 0.00 86 1014.5
20260508071827 23 200 0.0 0.0 0.00 0.00 0.00 86 1014.4
20260508071334 23 200 0.0 0.0 0.00 0.00 0.00 87 1014.5
20260508070826 23 200 0.0 0.0 0.00 0.00 0.00 88 1014.5
20260508070346 23 200 0.0 0.0 0.00 0.00 0.00 88 1014.6
20260508065840 23 200 0.0 0.0 0.00 0.00 0.00 88 1014.7
20260508065334 23 200 0.0 0.0 0.00 0.00 0.00 88 1014.6
20260508064826 23 200 0.0 0.0 0.00 0.00 0.00 88 1014.5
20260508064335 23 200 0.0 0.0 0.00 0.00 0.00 87 1014.6
20260508063826 23 200 0.0 0.0 0.00 0.00 0.00 87 1014.7
20260508063324 23 200 0.0 0.0 0.00 0.00 0.00 87 1014.8
20260508062824 23 200 0.0 0.0 0.00 0.00 0.00 87 1014.8
20260508062335 23 154 0.0 0.0 0.00 0.00 0.00 87 1014.9
20260508061834 23 154 0.0 0.0 0.00 0.00 0.00 87 1015.0
20260508061329 23 154 0.0 0.0 0.00 0.00 0.00 87 1015.0
20260508060823 23 154 0.0 0.0 0.00 0.00 0.00 87 1015.1
20260508060338 23 154 0.0 0.0 0.00 0.00 0.00 87 1015.1
20260508055831 23 154 0.0 0.0 0.00 0.00 0.00 87 1015.0
20260508055342 23 154 0.0 0.0 0.00 0.00 0.00 86 1015.1
20260508054829 23 154 0.0 0.0 0.00 0.00 0.00 86 1015.0
20260508054321 23 154 0.0 0.0 0.00 0.00 0.00 86 1015.1
20260508053906 23 154 0.0 0.0 0.00 0.00 0.00 86 1015.1
20260508053336 23 154 0.0 0.0 0.00 0.00 0.00 85 1015.2
20260508052821 24 155 0.0 0.0 0.00 0.00 0.00 85 1015.2
20260508052330 24 155 0.0 0.0 0.00 0.00 0.00 85 1015.3
20260508051820 24 155 0.0 0.0 0.00 0.00 0.00 84 1015.3
20260508051341 24 155 0.0 0.0 0.00 0.00 0.00 84 1015.2
20260508050854 24 155 0.0 0.0 0.00 0.00 0.00 84 1015.4
20260508050340 25 155 0.0 0.0 0.00 0.00 0.00 84 1015.4
20260508045831 25 155 0.0 0.0 0.00 0.00 0.00 83 1015.4
20260508045323 25 155 0.0 0.0 0.00 0.00 0.00 82 1015.3
20260508044834 25 155 0.0 0.0 0.00 0.00 0.00 82 1015.2
20260508044324 25 155 0.0 0.0 0.00 0.00 0.00 81 1015.2
20260508043832 25 155 0.0 0.0 0.00 0.00 0.00 81 1015.2
20260508043343 25 155 0.0 1.6 0.00 0.00 0.00 81 1015.3
20260508042909 26 155 0.0 1.6 0.00 0.00 0.00 81 1015.3
20260508042332 26 141 0.0 1.6 0.00 0.00 0.00 81 1015.4
20260508041837 26 141 0.0 1.6 0.00 0.00 0.00 81 1015.3
20260508041346 26 141 0.0 3.2 0.00 0.00 0.00 80 1015.3
20260508040913 26 140 0.0 3.2 0.00 0.00 0.00 80 1015.3
20260508040320 26 133 0.0 3.2 0.00 0.00 0.00 80 1015.3
20260508035836 26 143 1.6 3.2 0.00 0.00 0.00 80 1015.3
20260508035341 26 151 0.0 3.2 0.00 0.00 0.00 80 1015.4
20260508034831 26 154 0.0 1.6 0.00 0.00 0.00 80 1015.5
20260508034407 26 155 0.0 3.2 0.00 0.00 0.00 80 1015.5
20260508033820 26 158 1.6 4.8 0.00 0.00 0.00 80 1015.6
20260508033344 26 171 0.0 4.8 0.00 0.00 0.00 80 1015.5
20260508032857 26 149 1.6 6.4 0.00 0.00 0.00 79 1015.5
20260508032325 26 136 1.6 6.4 0.00 0.00 0.00 79 1015.4
20260508031848 26 149 1.6 4.8 0.00 0.00 0.00 79 1015.3
20260508031337 26 141 1.6 4.8 0.00 0.00 0.00 79 1015.4
20260508030829 26 148 0.0 4.8 0.00 0.00 0.00 78 1015.4
20260508030342 26 131 1.6 4.8 0.00 0.00 0.00 78 1015.3
20260508025823 26 134 1.6 4.8 0.00 0.00 0.00 78 1015.3
20260508025349 26 136 1.6 4.8 0.00 0.00 0.00 78 1015.2
20260508024820 27 136 1.6 6.4 0.00 0.00 0.00 78 1015.3
20260508024342 27 136 3.2 8.0 0.00 0.00 0.00 78 1015.3
20260508023836 27 143 1.6 8.0 0.00 0.00 0.00 78 1015.3
20260508023335 27 138 3.2 8.0 0.00 0.00 0.00 78 1015.4
20260508022827 27 153 3.2 8.0 0.00 0.00 0.00 77 1015.3
20260508022347 27 130 3.2 8.0 0.00 0.00 0.00 77 1015.2
20260508021831 27 134 3.2 6.4 0.00 0.00 0.00 77 1015.3
20260508021322 27 146 3.2 9.7 0.00 0.00 0.00 77 1015.3
20260508020834 27 115 1.6 9.7 0.00 0.00 0.00 77 1015.3
20260508020328 27 139 3.2 8.0 0.00 0.00 0.00 77 1015.2
20260508015821 27 142 1.6 8.0 0.00 0.00 0.00 77 1015.2
20260508015324 27 150 3.2 8.0 0.00 0.00 0.00 76 1015.2
20260508014846 27 114 3.2 8.0 0.00 0.00 0.00 76 1015.2
20260508014321 27 145 1.6 6.4 0.00 0.00 0.00 76 1015.1
20260508013828 27 129 3.2 6.4 0.00 0.00 0.00 76 1015.2
20260508013351 27 124 3.2 6.4 0.00 0.00 0.00 75 1015.2
20260508012820 27 131 3.2 6.4 0.00 0.00 0.00 75 1015.2
20260508012342 27 144 1.6 6.4 0.00 0.00 0.00 74 1015.3
20260508011837 27 136 3.2 8.0 0.00 0.00 0.00 74 1015.3
20260508011348 27 159 3.2 8.0 0.00 0.00 0.00 74 1015.2
20260508010833 27 124 4.8 8.0 0.00 0.00 0.00 74 1015.2
20260508010347 27 123 4.8 8.0 0.00 0.00 0.00 74 1015.2
20260508005831 27 117 1.6 6.4 0.00 0.00 0.00 73 1015.2
20260508005322 27 139 1.6 6.4 0.00 0.00 0.00 73 1015.2
20260508004832 27 124 1.6 8.0 0.00 0.00 0.00 72 1015.2
20260508004344 27 152 3.2 8.0 0.00 0.00 0.00 72 1015.2
20260508003857 28 148 3.2 8.0 0.00 0.00 0.00 72 1015.2
20260508003329 28 139 3.2 8.0 0.00 0.00 0.00 71 1015.3
20260508002842 28 131 4.8 8.0 0.00 0.00 0.00 72 1015.2
20260508002324 28 155 1.6 9.7 0.00 0.00 0.00 72 1015.1
20260508001829 28 124 4.8 8.0 0.00 0.00 0.00 71 1015.0
20260508001320 28 123 4.8 8.0 0.00 0.00 0.00 71 1015.0
20260508000850 28 139 1.6 6.4 0.00 0.00 0.00 71 1015.0
20260508000322 28 134 3.2 12.9 0.00 0.00 0.00 70 1015.0
20260507235831 28 150 4.8 12.9 0.00 0.00 0.00 70 1014.8
20260507235324 28 127 8.0 12.9 0.00 0.00 0.00 70 1014.8
20260507234839 28 133 8.0 11.3 0.00 0.00 0.00 69 1014.7
20260507234345 28 129 4.8 11.3 0.00 0.00 0.00 70 1014.7
20260507233839 28 136 3.2 11.3 0.00 0.00 0.00 68 1014.6
20260507233328 28 119 3.2 9.7 0.00 0.00 0.00 69 1014.5
20260507232822 28 98 4.8 12.9 0.00 0.00 0.00 69 1014.3
20260507232345 28 126 8.0 14.5 0.00 0.00 0.00 69 1014.4
20260507231828 28 146 8.0 16.1 0.00 0.00 0.00 69 1014.2
20260507231343 29 138 11.3 16.1 0.00 0.00 0.00 68 1014.2
20260507230832 29 127 4.8 14.5 0.00 0.00 0.00 70 1014.2
20260507230335 29 135 9.7 14.5 0.00 0.00 0.00 69 1014.2
20260507225826 30 124 11.3 14.5 0.00 0.00 0.00 69 1014.2
20260507225347 30 140 6.4 12.9 0.00 0.00 0.00 68 1014.2
20260507224837 30 161 6.4 17.7 0.00 0.00 0.00 69 1014.2
20260507224320 30 105 8.0 14.5 0.00 0.00 0.00 68 1014.1
20260507223829 30 122 8.0 16.1 0.00 0.00 0.00 68 1014.1
20260507223321 30 163 9.7 16.1 0.00 0.00 0.00 67 1014.1
20260507222843 30 123 9.7 14.5 0.00 0.00 0.00 67 1014.0
20260507222336 30 96 6.4 14.5 0.00 0.00 0.00 66 1014.0
20260507221902 30 116 9.7 16.1 0.00 0.00 0.00 66 1014.0
20260507221322 30 146 8.0 16.1 0.00 0.00 0.00 66 1014.0
20260507220824 30 133 8.0 17.7 0.00 0.00 0.00 67 1014.0
20260507220347 30 138 8.0 17.7 0.00 0.00 0.00 66 1014.0
20260507215841 30 109 9.7 14.5 0.00 0.00 0.00 66 1014.1
20260507215335 31 120 6.4 14.5 0.00 0.00 0.00 65 1014.1
20260507214827 31 58 6.4 12.9 0.00 0.00 0.00 66 1014.1
20260507214342 31 160 4.8 16.1 0.00 0.00 0.00 66 1014.1
20260507213834 31 138 8.0 16.1 0.00 0.00 0.00 66 1013.9
20260507213328 31 134 6.4 16.1 0.00 0.00 0.00 66 1013.9
20260507212820 31 137 11.3 17.7 0.00 0.00 0.00 66 1013.9
20260507212330 31 133 8.0 17.7 0.00 0.00 0.00 67 1014.1
20260507211821 31 127 8.0 14.5 0.00 0.00 0.00 67 1014.0
20260507211335 31 131 8.0 16.1 0.00 0.00 0.00 67 1014.0
20260507210828 31 123 9.7 16.1 0.00 0.00 0.00 68 1014.0
20260507210342 31 121 11.3 16.1 0.00 0.00 0.00 68 1014.0
20260507205853 31 117 9.7 16.1 0.00 0.00 0.00 68 1013.9
20260507205322 31 150 11.3 19.3 0.00 0.00 0.00 68 1014.0
20260507204845 31 120 9.7 19.3 0.00 0.00 0.00 69 1014.0
20260507204342 31 136 8.0 12.9 0.00 0.00 0.00 67 1013.9
20260507203825 31 139 6.4 14.5 0.00 0.00 0.00 66 1014.0
20260507203334 32 141 8.0 16.1 0.00 0.00 0.00 67 1013.9
20260507202825 32 121 9.7 14.5 0.00 0.00 0.00 67 1014.0
20260507202324 32 148 8.0 12.9 0.00 0.00 0.00 67 1014.1
20260507201835 32 134 4.8 9.7 0.00 0.00 0.00 66 1014.1
20260507201347 32 125 3.2 9.7 0.00 0.00 0.00 65 1014.1
20260507200830 32 125 4.8 9.7 0.00 0.00 0.00 66 1014.2
20260507200322 32 45 4.8 9.7 0.00 0.00 0.00 63 1014.3
20260507195843 33 4 3.2 6.4 0.00 0.00 0.00 62 1014.4
20260507195337 33 122 3.2 6.4 0.00 0.00 0.00 55 1014.5
20260507194904 34 108 0.0 0.0 0.00 0.00 0.00 54 1014.6
20260507194352 33 120 0.0 4.8 0.00 0.00 0.00 56 1014.6
20260507193824 33 142 0.0 4.8 0.00 0.00 0.00 54 1014.7
20260507193338 33 109 0.0 6.4 0.00 0.00 0.00 56 1014.9
20260507192904 33 55 0.0 6.4 0.00 0.00 0.00 56 1014.8